Regional Weather Roundup
Issued by NWS

Home | Current Version | Previous Version | Text Only | Print | Product List | Glossary On
Versions: 1 2 3 4 5 6 7 8 9 10 11 12 13 14 15 16 17 18 19 20 21 22 23 24 25 26
000
ASUS45 KREV 271610
RWRNV
NEVADA REGIONAL WEATHER ROUNDUP
NATIONAL WEATHER SERVICE RENO NV
900 AM PDT FRI MAY 27 2016

NOTE: "FAIR" INDICATES FEW OR NO CLOUDS BELOW 12,000 FEET WITH NO
SIGNIFICANT WEATHER AND/OR OBSTRUCTIONS TO VISIBILITY.

NVZ001-003-004-271700-
WESTERN NEVADA

CITY           SKY/WX    TMP DP  RH WIND       PRES   REMARKS
RENO           MOSUNNY   60  38  43 E5        30.07F
CARSON CITY    FAIR      57  39  51 CALM      30.09S
MINDEN         FAIR      55  41  58 CALM      30.08F
SLIDE MTN        N/A     41  28  60 W2          N/A
FALLON         MOSUNNY   65  30  27 W8        30.03S
LOVELOCK       SUNNY     64  30  27 CALM      30.02S
HAWTHORNE      SUNNY     63  39  42 NW7       30.06
$$

NVZ002-CAZ072-073-271700-
NORTHERN AND CENTRAL SIERRA

CITY           SKY/WX    TMP DP  RH WIND       PRES   REMARKS
S. LAKE TAHOE  SUNNY     53  40  61 E3        30.11S
TRUCKEE        MOSUNNY   39  39 100 CALM      30.13S
SQUAW VLY 8000 NOT AVBL
SUSANVILLE     SUNNY     57  30  35 CALM      30.09S
BLUE CANYON    SUNNY     59  32  36 NW3       30.09S
MAMMOTH LAKES  FAIR      54  35  48 SE3       30.15S
BRIDGEPORT     FAIR      49  32  52 CALM      30.10F
$$

NVZ030-031-036-271700-
NORTHERN NEVADA

CITY           SKY/WX    TMP DP  RH WIND       PRES   REMARKS
ELKO           SUNNY     54  43  66 VRB3      30.01F
WINNEMUCCA     SUNNY     59  31  34 NW9       30.03S
WENDOVER       SUNNY     63  37  39 S5        29.98F
$$

NVZ035-037-271700-
CENTRAL NEVADA

CITY           SKY/WX    TMP DP  RH WIND       PRES   REMARKS
ELY            MOSUNNY   55  36  48 VRB5      30.06F
EUREKA           N/A     55  40  56 S3        30.04F
$$

NVZ013-014-271700-
SOUTH CENTRAL NEVADA

CITY           SKY/WX    TMP DP  RH WIND       PRES   REMARKS
TONOPAH        SUNNY     63  34  33 W14       30.06F
$$

NVZ017-020-022-271700-
SOUTHERN NEVADA

CITY           SKY/WX    TMP DP  RH WIND       PRES   REMARKS
LAS VEGAS      MOSUNNY   76  33  21 NE5       29.87S
N. LAS VEGAS   SUNNY     76  34  21 NW5       29.90S
NELLIS AFB     SUNNY     74  38  26 S1        29.89S
HENDERSON      SUNNY     75  38  26 E3        29.93S
MERCURY        SUNNY     71  33  24 W5        29.95S
$$




USA.gov is the U.S. government's official web portal to all federal, state and local government web resources and services.